User: anonymous   Login
Location: Unspecified
(0.0000°N, 0.0000°E)
Time: 06:16:48
(UTC+00:00)
Language:

Oscar 14 - Orbit

View from above orbital plane
View from above orbital plane
View from above satellite
View from above satellite

Ground track
Ground track

The orbit data is extracted from the following two-line orbital elements,

1 20437U 90005B   18175.46576473 -.00000021 +00000-0 +86803-5 0  9998
2 20437 098.7056 124.7448 0010990 156.5905 312.9090 14.32292339484269
Epoch (UTC): 24 June 2018 11:10:42
Eccentricity: 0.0010990
inclination: 98.7056°
perigee height: 776 km
apogee height: 792 km
right ascension of ascending node: 124.7448°
argument of perigee: 156.5905°
revolutions per day: 14.32292339
mean anomaly at epoch: 312.9090°
orbit number at epoch: 48426

The dashed part of the orbit path shows where the satellite is in the earth's shadow,  

DLR